Location: Arborea
(39.7744°N, 8.5819°E)
Time: 23:41:49
(UTC+00:00)

Iridium 4 Rocket - Pass Details

Date: 24 October 2021
Orbit: 585 x 903 km, 86.9° (Epoch: 27 November)

Event Time Altitude Azimuth Distance (km) Brightness Sun altitude
Rises 17:00:11 0° 7° (N) 3,016 6.4 -5.8°
Reaches altitude 10° 17:02:31 10° 16° (NNE) 2,145 5.6 -6.3°
Maximum altitude 17:06:56 37° 84° (E) 1,139 3.9 -7.1°
Drops below altitude 10° 17:11:41 10° 151° (SSE) 2,322 5.8 -8.0°
Sets 17:14:18 0° 159° (SSE) 3,299 6.7 -8.5°
